Powrót do katalogu

IRIDIUM 33 DEB

AktywnyPO
NORAD 33884·DEBRIS·🇺🇸 United States

Wystrzelony Sep 14, 1997 z Baikonur Cosmodrome

Loading…

Następne Przeloty (najbliższe 24 godziny)

TLE

ŚwieżeSource: Space-Track

Epoka: Sep 14, 2026, 05:49 UTC

1 33884U 97051BD  26257.24258815  .00007514  00000-0  89057-3 0  9994
2 33884  86.3624 244.6080 0014720  71.0573 299.5994 14.84342164929260

Śledź IRIDIUM 33 DEB w czasie rzeczywistym z AllMySat

Download on the App Store